[[{"header":{"parameterUnit":"m.s-1","parameterCategory":1,"la1":30.2991,"la2":30.254,"lo1":-89.0895,"lo2":-89.0444,"dy":0.0017,"dx":0.0017,"nx":28,"ny":28,"refTime":"2024-04-12T09:00:00:Z","depth":0,"parameterNumber":2,"parameterNumberName":"U-component_of_WINDS"},"data":[0,0,0,0,0,0,0,0,0,0,0,0,0,0,0,0,0,0,0,0,0,0,0,0,0,0,0,0,0,0,0,0,0,0,0,0,0,0,0,0,0,0,0,0,0,0,0,0,0,0,0,0,0,0,0,0,0,0,1.827,1.8271,0,1.8352,1.8353,1.8354,1.8347,1.8346,1.8345,1.8343,1.8426,1.843,1.8433,0,0,0,0,0,0,0,0,0,0,0,0,0,1.8105,1.8108,1.827,1.8271,1.8272,1.8352,1.8353,1.8354,1.8347,1.8346,1.8344,1.8343,1.8425,1.8429,1.8433,0,0,0,0,0,0,0,0,0,0,0,0,0,1.8181,1.8109,1.827,1.8278,1.828,1.8352,1.8353,1.8355,1.8348,1.8346,1.8344,1.8342,1.8424,1.8429,1.8434,1.8502,0,0,1.8449,1.8452,0,0,0,0,0,0,0,0,1.8176,1.8187,1.8276,1.8278,1.828,1.8338,1.8325,1.8404,1.8348,1.8322,1.8343,1.8341,1.8398,1.8405,1.8425,1.8506,1.851,1.845,1.8453,1.8455,1.8456,0,0,0,0,0,0,0,1.8171,1.8183,1.8302,1.8277,1.828,1.8277,1.8286,1.834,1.8369,1.8324,1.8324,1.8334,1.8399,1.842,1.8427,1.8511,1.845,1.8454,1.8457,1.8459,1.8649,1.8651,0,0,0,0,0,0,1.8164,1.8179,1.83,1.8305,1.8222,1.8282,1.8291,1.8321,1.8369,1.8374,1.8335,1.8333,1.8412,1.8421,1.843,1.851,1.8455,1.846,1.8463,1.8647,1.865,1.8652,0,0,0,0,0,0,1.8161,1.8175,1.8297,1.8242,1.8257,1.8286,1.832,1.8323,1.8344,1.8377,1.8382,1.8351,1.8411,1.8422,1.8484,1.8513,1.8462,1.8467,1.8645,1.8648,1.8651,1.8674,0,0,0,0,0,0,1.8156,1.8174,1.8201,1.8243,1.826,1.835,1.8322,1.8326,1.8353,1.8351,1.8394,1.8399,1.841,1.8476,1.8489,1.8519,1.847,1.8642,1.8646,1.865,1.8671,1.8677,1.8683,0,0,0,0,0,1.815,1.8205,1.8202,1.8217,1.8295,1.8352,1.8362,1.8374,1.8356,1.8382,1.8403,1.8398,1.8508,1.8482,1.8496,1.8529,1.8641,1.8645,1.865,1.8668,1.8676,1.8683,0,0,0,0,0,0,1.8166,1.821,1.8208,1.8278,1.8311,1.8351,1.8385,1.8383,1.8422,1.8418,1.8432,1.8441,1.8502,1.8522,1.8492,1.8596,1.8572,1.8579,1.8581,1.8589,1.8595,1.8588,1.8475,0,0,0,0,0,1.8177,1.8221,1.8257,1.8315,1.8332,1.8355,1.8381,1.8387,1.8422,1.8436,1.8461,1.8495,1.8537,1.8564,1.8605,1.8674,1.8682,1.8703,1.8709,1.8714,1.872,1.8755,1.8764,1.8667,1.8667,1.8667,0,0,1.8202,1.8231,1.8258,1.8319,1.8345,1.8389,1.8367,1.8415,1.8446,1.8443,1.8502,1.8522,1.856,1.8624,1.8654,1.8642,1.8749,1.872,1.8724,1.8727,1.8761,1.877,1.8778,1.867,1.8669,1.8669,0,0,1.8267,1.8295,1.8345,1.8372,1.8412,1.8427,1.8439,1.8479,1.8491,1.8551,1.8548,1.8586,1.8659,1.8685,1.8708,1.8782,1.8778,1.8795,1.8827,1.8861,1.8869,1.8876,1.8899,1.8908,1.8801,1.8801,1.8801,0,1.8292,1.8358,1.8371,1.8418,1.8444,1.8443,1.8492,1.8518,1.8569,1.8586,1.8573,1.8663,1.8689,1.8758,1.8776,1.8795,1.8808,1.879,1.8867,1.8874,1.888,1.8903,1.8912,1.8803,1.8803,1.8803,1.8802,0,1.8385,1.8431,1.8466,1.8515,1.8545,1.8594,1.8612,1.8641,1.8645,1.8661,1.872,1.8751,1.8796,1.8813,1.8818,1.8883,1.8874,1.8864,1.8839,1.8891,1.8912,1.8921,1.8805,1.8805,1.8804,1.8804,0,0,1.8463,1.8517,1.853,1.8551,1.8595,1.863,1.8677,1.8722,1.8745,1.878,1.8818,1.8879,1.8869,1.8895,1.8903,1.8933,1.8986,1.8919,1.892,1.8928,1.9056,1.9062,1.9072,1.8984,1.8986,1.8987,1.9052,0,1.8531,1.8615,1.8627,1.8701,1.8742,1.8741,1.8781,1.8812,1.8828,1.8864,1.8882,1.8924,1.8909,1.8924,1.8954,1.8973,1.9012,1.8969,1.9018,1.902,1.9006,1.9084,1.9091,1.915,1.9061,1.9062,1.9063,0,1.8622,1.8658,1.8736,1.8772,1.8789,1.8826,1.8866,1.8902,1.8936,1.8945,1.8973,1.8976,1.9024,1.8998,1.9063,1.9033,1.9054,1.9067,1.9069,1.9072,1.9043,1.9087,1.917,1.9178,1.9077,1.9076,1.9075,0,1.8667,1.8736,1.8791,1.8809,1.8853,1.8879,1.8898,1.893,1.8955,1.8991,1.9007,1.9047,1.9069,1.91,1.9113,1.9094,1.9176,1.9152,1.9183,1.9183,1.9199,1.9197,1.9284,1.9216,1.9216,1.9216,1.9216,0,1.874,1.8787,1.8811,1.8845,1.8897,1.891,1.896,1.8979,1.9007,1.9043,1.9045,1.9079,1.9095,1.9131,1.9142,1.9192,1.9202,1.921,1.9212,1.9208,1.9207,1.9221,1.9216,1.9218,1.9218,1.9217,1.9217,0,1.8799,1.8818,1.8877,1.8913,1.8923,1.896,1.899,1.9022,1.9037,1.9082,1.9094,1.9118,1.916,1.9176,1.9228,1.9235,1.9292,1.9292,1.928,1.928,1.9309,1.9305,1.9406,1.9419,1.9345,1.9345,1.9346,0,1.8844,1.888,1.8919,1.8944,1.8964,1.9003,1.9028,1.9042,1.9069,1.9109,1.9135,1.9177,1.921,1.9277,1.9299,1.9337,1.9337,1.9369,1.9342,1.9337,1.9334,1.9331,1.9333,1.9374,1.9374,1.9375,1.9375,0,1.892,1.8927,1.8964,1.9003,1.9033,1.9065,1.9096,1.9116,1.9134,1.9163,1.9206,1.9232,1.9284,1.9325,1.9364,1.9383,1.9382,1.9384,1.9393,1.9388,1.9379,1.9382,1.9291,1.9381,1.9381,1.938,1.938,1.938,1.8971,1.9002,1.9034,1.9074,1.9099,1.9128,1.9158,1.9177,1.9213,1.9256,1.9262,1.9307,1.9338,1.9391,1.9412,1.9446,1.9438,1.9451,1.9454,1.9456,1.9457,1.9375,1.9454,1.9454,1.9454,1.9453,1.9453,0,1.9045,1.9066,1.9103,1.9145,1.9176,1.9173,1.9207,1.9233,1.9272,1.9302,1.9334,1.9382,1.9421,1.9445,1.9484,1.9507,1.9507,1.9517,1.9514,1.9518,1.9464,1.9451,1.9516,1.9516,1.9516,1.9516,1.9515,1.9515,1.9087,1.9138,1.9149,1.9211,1.9231,1.9275,1.9294,1.932,1.9343,1.9396,1.9428,1.9444,1.947,1.9511,1.9546,1.9552,1.9565,1.9575,1.958,1.9528,1.9522,1.9516,1.9504,1.9578,1.9578,1.963,1.9631,1.9631]},{"header":{"parameterUnit":"m.s-1","parameterCategory":1,"la1":30.2991,"la2":30.254,"lo1":-89.0895,"lo2":-89.0444,"dy":0.0017,"dx":0.0017,"nx":28,"ny":28,"refTime":"2024-04-12T09:00:00:Z","depth":0,"parameterNumber":3,"parameterNumberName":"V-component_of_WINDS"},"data":[0,0,0,0,0,0,0,0,0,0,0,0,0,0,0,0,0,0,0,0,0,0,0,0,0,0,0,0,0,0,0,0,0,0,0,0,0,0,0,0,0,0,0,0,0,0,0,0,0,0,0,0,0,0,0,0,0,0,3.2548,3.2548,0,3.2566,3.2566,3.2566,3.2506,3.2505,3.2503,3.2501,3.2518,3.252,3.2523,0,0,0,0,0,0,0,0,0,0,0,0,0,3.246,3.2462,3.2548,3.2548,3.2548,3.2566,3.2566,3.2566,3.2507,3.2505,3.2502,3.25,3.2518,3.252,3.2523,0,0,0,0,0,0,0,0,0,0,0,0,0,3.249,3.2463,3.2548,3.2521,3.2519,3.2566,3.2566,3.2566,3.2507,3.2505,3.2502,3.2499,3.2517,3.252,3.2523,3.2597,0,0,3.2533,3.2534,0,0,0,0,0,0,0,0,3.2488,3.2493,3.2525,3.2523,3.252,3.2531,3.2541,3.2576,3.2508,3.2512,3.2501,3.2498,3.2525,3.2527,3.2536,3.2598,3.2598,3.2533,3.2535,3.2536,3.2537,0,0,0,0,0,0,0,3.2486,3.2492,3.2555,3.2525,3.2523,3.2507,3.2508,3.2548,3.2533,3.2511,3.2507,3.251,3.2523,3.2533,3.2536,3.2599,3.2533,3.2536,3.2538,3.2539,3.2718,3.2721,0,0,0,0,0,0,3.2488,3.2491,3.2554,3.2555,3.2497,3.2511,3.2512,3.253,3.2532,3.253,3.2512,3.2507,3.2529,3.2533,3.2537,3.2621,3.2536,3.2539,3.2541,3.2716,3.2719,3.2722,0,0,0,0,0,0,3.2486,3.2494,3.2554,3.2522,3.2528,3.2515,3.2536,3.2532,3.2542,3.2533,3.253,3.2525,3.2527,3.2532,3.2582,3.2621,3.2541,3.2544,3.2712,3.2717,3.272,3.2792,0,0,0,0,0,0,3.2484,3.2494,3.2523,3.2523,3.253,3.2599,3.2539,3.2534,3.2548,3.2542,3.2545,3.2543,3.2526,3.2577,3.2585,3.2624,3.2546,3.2709,3.2714,3.2719,3.2786,3.2798,3.2808,0,0,0,0,0,3.2481,3.2543,3.2525,3.2533,3.2566,3.2602,3.2606,3.2585,3.2552,3.258,3.2573,3.2543,3.2616,3.2583,3.2591,3.2631,3.2706,3.2713,3.2719,3.2781,3.2796,3.2808,0,0,0,0,0,0,3.2547,3.2542,3.2522,3.2586,3.2595,3.2592,3.2626,3.2602,3.262,3.2613,3.2586,3.2587,3.2641,3.2641,3.2605,3.2701,3.2655,3.2663,3.2699,3.2713,3.2724,3.2722,3.2549,0,0,0,0,0,3.2569,3.26,3.2593,3.265,3.2655,3.264,3.2655,3.2638,3.2646,3.265,3.2647,3.2656,3.268,3.2697,3.2719,3.2786,3.2784,3.2817,3.2829,3.2838,3.2845,3.2878,3.2892,3.2743,3.2743,3.2743,0,0,3.2615,3.2616,3.2637,3.2663,3.2668,3.2698,3.2644,3.2679,3.2701,3.2655,3.2701,3.2699,3.2707,3.2765,3.279,3.2767,3.2886,3.2846,3.2854,3.2856,3.2886,3.29,3.2913,3.2747,3.2747,3.2746,0,0,3.2713,3.2718,3.2764,3.277,3.2778,3.2767,3.2778,3.2779,3.2776,3.2822,3.2787,3.2813,3.2856,3.2862,3.2871,3.297,3.2942,3.2978,3.3036,3.3069,3.3081,3.3091,3.3124,3.3137,3.2986,3.2986,3.2986,0,3.2769,3.2814,3.2791,3.2828,3.284,3.2799,3.2845,3.2851,3.2866,3.2875,3.2848,3.29,3.2903,3.2961,3.2984,3.2994,3.3004,3.2977,3.3081,3.3091,3.31,3.3131,3.3144,3.299,3.299,3.2989,3.2989,0,3.2881,3.2913,3.2949,3.2964,3.298,3.3021,3.3003,3.3022,3.3003,3.2995,3.3041,3.3042,3.3063,3.3076,3.3058,3.313,3.3115,3.3086,3.3038,3.3119,3.3148,3.316,3.2996,3.2995,3.2993,3.2992,0,0,3.3022,3.3022,3.3036,3.3041,3.3046,3.3069,3.3108,3.3128,3.3144,3.3155,3.3186,3.3223,3.3195,3.3205,3.3187,3.3216,3.3292,3.3182,3.3182,3.3201,3.3369,3.339,3.3405,3.3274,3.3276,3.3278,3.3367,0,3.3117,3.3183,3.3163,3.3229,3.3257,3.3218,3.3251,3.3257,3.325,3.3272,3.3264,3.329,3.3252,3.3257,3.3284,3.3277,3.3325,3.327,3.33,3.3302,3.3298,3.342,3.3443,3.3528,3.3379,3.3381,3.3382,0,3.3237,3.3252,3.3321,3.3319,3.333,3.3361,3.3376,3.3398,3.3403,3.3396,3.3407,3.3383,3.3419,3.3373,3.3422,3.3385,3.3396,3.3394,3.3397,3.3398,3.3346,3.3422,3.3555,3.3567,3.34,3.3399,3.3397,0,3.3331,3.3368,3.3414,3.3419,3.3419,3.3441,3.3442,3.3444,3.3457,3.3471,3.3478,3.3496,3.3506,3.352,3.3501,3.3469,3.3552,3.3504,3.3546,3.3546,3.3564,3.3563,3.3698,3.3574,3.3574,3.3574,3.3574,0,3.3438,3.3481,3.3455,3.3483,3.3529,3.3505,3.3551,3.3548,3.355,3.3576,3.3544,3.3568,3.3543,3.3565,3.355,3.3592,3.3597,3.3591,3.3586,3.3593,3.3593,3.3599,3.3592,3.3577,3.3576,3.3576,3.3575,0,3.355,3.3534,3.3581,3.3576,3.3576,3.361,3.3605,3.363,3.3621,3.3653,3.3659,3.3644,3.3668,3.3651,3.3675,3.3665,3.372,3.3708,3.3718,3.3714,3.3756,3.3751,3.3898,3.3915,3.3782,3.3783,3.3784,0,3.3619,3.3651,3.3649,3.3663,3.3666,3.369,3.3702,3.3679,3.3693,3.3701,3.3724,3.3745,3.3761,3.3801,3.3792,3.381,3.3797,3.3847,3.3799,3.3804,3.3795,3.3793,3.3795,3.3856,3.3858,3.3859,3.386,0,3.3742,3.3732,3.3751,3.3767,3.3782,3.3794,3.3803,3.3817,3.3792,3.381,3.3833,3.3846,3.3869,3.389,3.3904,3.3904,3.3878,3.3875,3.3885,3.3892,3.3895,3.3892,3.3742,3.3872,3.387,3.3869,3.3869,3.3868,3.3833,3.3859,3.3861,3.3882,3.3886,3.3895,3.3917,3.391,3.3929,3.3946,3.3931,3.3959,3.3962,3.3978,3.3981,3.4002,3.3982,3.3997,3.4001,3.4004,3.4009,3.3893,3.4005,3.4005,3.4005,3.4004,3.4004,0,3.3953,3.3951,3.3972,3.3984,3.4001,3.3974,3.3982,3.3998,3.4023,3.4027,3.4043,3.4069,3.4089,3.4081,3.4098,3.4116,3.4104,3.4121,3.4119,3.4119,3.4028,3.4016,3.413,3.413,3.413,3.413,3.413,3.413,3.4017,3.4058,3.4048,3.409,3.4089,3.4115,3.4122,3.4129,3.4132,3.4163,3.4179,3.4174,3.4173,3.4189,3.4206,3.4203,3.421,3.4231,3.4223,3.4138,3.4126,3.4114,3.4103,3.4233,3.4233,3.4312,3.4313,3.4314]}]]